| time (UTC) | temp C | wind direction | speed KPH | gust KPH | rain 1hr cm | rain 24hr cm | rain mn cm | humidity % | barometer mb |
| 20260507173706 | 22 | 0.0 | 0.0 | 0.00 | 0.00 | 0.00 | 53 | 1005.8 | |
| 20260507163712 | 25 | 0.0 | 0.0 | 0.00 | 0.00 | 0.00 | 52 | 1005.9 | |
| 20260507153707 | 26 | 0.0 | 0.0 | 0.00 | 0.00 | 0.00 | 51 | 1006.1 | |
| 20260507144812 | 30 | 0.0 | 0.0 | 0.00 | 0.00 | 0.00 | 49 | 1006.4 | |
| 20260507130026 | 37 | 0.0 | 0.0 | 0.00 | 0.00 | 0.00 | 43 | 1007.5 | |
| 20260507112357 | 37 | 0.0 | 0.0 | 0.00 | 0.00 | 0.00 | 39 | 1008.7 | |
| 20260507094756 | 41 | 0.0 | 0.0 | 0.00 | 0.00 | 0.00 | 32 | 1006.5 | |
| 20260507084756 | 31 | 0.0 | 0.0 | 0.00 | 0.00 | 0.00 | 44 | 1008.6 | |
| 20260507074757 | 28 | 0.0 | 0.0 | 0.00 | 0.00 | 0.00 | 46 | 1008.3 | |
| 20260507065959 | 19 | 0.0 | 0.0 | 0.00 | 0.00 | 0.00 | 54 | 1008.4 | |
| 20260507060033 | 13 | 0.0 | 0.0 | 0.00 | 0.00 | 0.00 | 59 | 1008.1 | |
| 20260507040048 | 8 | 0.0 | 0.0 | 0.00 | 0.00 | 0.00 | 62 | 1007.4 | |
| 20260507031209 | 10 | 0.0 | 0.0 | 0.00 | 0.00 | 0.00 | 62 | 1007.2 | |
| 20260507021209 | 11 | 0.0 | 0.0 | 0.00 | 0.00 | 0.00 | 62 | 1007.2 | |
| 20260507011209 | 11 | 0.0 | 0.0 | 0.00 | 0.00 | 0.00 | 62 | 1007.1 | |
| 20260507001208 | 11 | 0.0 | 0.0 | 0.00 | 0.00 | 0.00 | 62 | 1007.1 | |
| 20260506221207 | 13 | 0.0 | 0.0 | 0.00 | 0.00 | 0.00 | 61 | 1006.7 | |
| 20260506211207 | 14 | 0.0 | 0.0 | 0.00 | 0.00 | 0.00 | 61 | 1006.4 | |
| 20260506201207 | 14 | 0.0 | 0.0 | 0.00 | 0.00 | 0.00 | 61 | 1005.9 | |
| 20260506191207 | 15 | 0.0 | 0.0 | 0.00 | 0.00 | 0.00 | 61 | 1005.2 | |
| 20260506181207 | 17 | 0.0 | 0.0 | 0.00 | 0.00 | 0.00 | 60 | 1004.9 |